Time,TemperatureF,DewpointF,PressureIn,WindDirection,WindDirectionDegrees,WindSpeedMPH,WindSpeedGustMPH,Humidity,HourlyPrecipIn,Conditions,Clouds,dailyrainin,SoftwareType,DateUTC
2013-10-26 00:00:00,57.7,52.6,30.18,North,11,0.0,0.0,83,0.00,,,0.00,Wunderground v.1.15,2013-10-26 04:00:00,
2013-10-26 00:05:00,57.5,52.7,30.18,North,11,0.0,0.0,84,0.00,,,0.00,Wunderground v.1.15,2013-10-26 04:05:00,
2013-10-26 00:10:00,57.6,52.8,30.18,North,11,0.0,0.0,84,0.00,,,0.00,Wunderground v.1.15,2013-10-26 04:10:00,
2013-10-26 00:15:00,57.6,52.8,30.18,North,11,0.0,0.0,84,0.00,,,0.00,Wunderground v.1.15,2013-10-26 04:15:00,
2013-10-26 00:20:00,57.7,52.9,30.18,North,11,0.0,0.0,84,0.00,,,0.00,Wunderground v.1.15,2013-10-26 04:20:00,
2013-10-26 00:25:00,57.9,53.1,30.17,North,11,0.0,0.0,84,0.00,,,0.00,Wunderground v.1.15,2013-10-26 04:25:00,
2013-10-26 00:30:00,58.2,53.4,30.18,North,11,0.0,0.0,84,0.00,,,0.00,Wunderground v.1.15,2013-10-26 04:30:00,
2013-10-26 00:35:00,58.3,53.5,30.17,North,11,0.0,0.0,84,0.00,,,0.00,Wunderground v.1.15,2013-10-26 04:35:00,
2013-10-26 00:40:00,58.3,53.5,30.17,North,11,0.0,0.0,84,0.00,,,0.00,Wunderground v.1.15,2013-10-26 04:40:00,
2013-10-26 00:45:00,58.2,53.4,30.17,North,11,0.0,0.0,84,0.00,,,0.00,Wunderground v.1.15,2013-10-26 04:45:00,
2013-10-26 00:50:00,58.0,53.2,30.17,North,11,0.0,0.0,84,0.00,,,0.00,Wunderground v.1.15,2013-10-26 04:50:00,
2013-10-26 00:55:00,57.5,52.7,30.16,North,11,0.0,0.0,84,0.00,,,0.00,Wunderground v.1.15,2013-10-26 04:55:00,
2013-10-26 01:00:00,57.2,52.4,30.16,North,11,0.0,0.0,84,0.00,,,0.00,Wunderground v.1.15,2013-10-26 05:00:00,
2013-10-26 01:05:00,56.8,52.0,30.16,North,11,0.0,0.0,84,0.00,,,0.00,Wunderground v.1.15,2013-10-26 05:05:00,
2013-10-26 01:10:00,56.6,51.8,30.16,North,11,0.0,0.0,84,0.00,,,0.00,Wunderground v.1.15,2013-10-26 05:10:00,
2013-10-26 01:15:00,56.3,51.5,30.16,North,11,0.0,0.0,84,0.00,,,0.00,Wunderground v.1.15,2013-10-26 05:15:00,
2013-10-26 01:20:00,56.0,51.2,30.16,North,11,0.0,0.0,84,0.00,,,0.00,Wunderground v.1.15,2013-10-26 05:20:00,
2013-10-26 01:25:00,55.7,50.9,30.16,North,11,0.0,0.0,84,0.00,,,0.00,Wunderground v.1.15,2013-10-26 05:25:00,
2013-10-26 01:30:00,55.5,50.7,30.16,North,11,0.0,0.0,84,0.00,,,0.00,Wunderground v.1.15,2013-10-26 05:30:00,
2013-10-26 01:35:00,55.1,50.4,30.16,North,11,0.0,0.0,84,0.00,,,0.00,Wunderground v.1.15,2013-10-26 05:35:00,
2013-10-26 01:40:00,54.8,50.1,30.16,North,11,0.0,0.0,84,0.00,,,0.00,Wunderground v.1.15,2013-10-26 05:40:00,
2013-10-26 01:45:00,54.6,49.9,30.16,North,11,0.0,0.0,84,0.00,,,0.00,Wunderground v.1.15,2013-10-26 05:45:00,
2013-10-26 01:50:00,54.5,49.8,30.16,North,11,0.0,0.0,84,0.00,,,0.00,Wunderground v.1.15,2013-10-26 05:50:00,
2013-10-26 01:55:00,54.4,49.7,30.15,North,11,0.0,0.0,84,0.00,,,0.00,Wunderground v.1.15,2013-10-26 05:55:00,
2013-10-26 02:00:00,54.4,49.7,30.15,North,11,0.0,0.0,84,0.00,,,0.00,Wunderground v.1.15,2013-10-26 06:00:00,
2013-10-26 02:05:00,54.3,49.9,30.15,North,11,0.0,0.0,85,0.00,,,0.00,Wunderground v.1.15,2013-10-26 06:05:00,
2013-10-26 02:10:00,54.1,49.7,30.15,North,11,0.0,0.0,85,0.00,,,0.00,Wunderground v.1.15,2013-10-26 06:10:00,
2013-10-26 02:15:00,54.2,49.8,30.15,North,11,0.0,0.0,85,0.00,,,0.00,Wunderground v.1.15,2013-10-26 06:15:00,
2013-10-26 02:20:00,53.9,49.5,30.15,North,11,0.0,0.0,85,0.00,,,0.00,Wunderground v.1.15,2013-10-26 06:20:00,
2013-10-26 02:25:00,53.5,49.1,30.14,North,11,0.0,0.0,85,0.00,,,0.00,Wunderground v.1.15,2013-10-26 06:25:00,
2013-10-26 02:30:00,53.2,48.8,30.14,North,11,0.0,0.0,85,0.00,,,0.00,Wunderground v.1.15,2013-10-26 06:30:00,
2013-10-26 02:35:00,53.0,48.6,30.14,North,11,0.0,0.0,85,0.00,,,0.00,Wunderground v.1.15,2013-10-26 06:35:00,
2013-10-26 02:40:00,52.9,48.5,30.14,North,11,0.0,0.0,85,0.00,,,0.00,Wunderground v.1.15,2013-10-26 06:40:00,
2013-10-26 02:45:00,52.9,48.5,30.13,North,11,0.0,0.0,85,0.00,,,0.00,Wunderground v.1.15,2013-10-26 06:45:00,
2013-10-26 02:50:00,52.7,48.3,30.13,North,11,0.0,0.0,85,0.00,,,0.00,Wunderground v.1.15,2013-10-26 06:50:00,
2013-10-26 02:55:00,52.6,48.2,30.13,North,11,0.0,0.0,85,0.00,,,0.00,Wunderground v.1.15,2013-10-26 06:55:00,
2013-10-26 03:00:00,52.6,48.2,30.13,North,11,0.0,0.0,85,0.00,,,0.00,Wunderground v.1.15,2013-10-26 07:00:00,
2013-10-26 03:05:00,52.5,48.1,30.14,North,11,0.0,0.0,85,0.00,,,0.00,Wunderground v.1.15,2013-10-26 07:05:00,
2013-10-26 03:10:00,52.5,48.1,30.13,North,11,0.0,0.0,85,0.00,,,0.00,Wunderground v.1.15,2013-10-26 07:10:00,
2013-10-26 03:15:00,52.4,48.0,30.13,North,11,0.0,0.0,85,0.00,,,0.00,Wunderground v.1.15,2013-10-26 07:15:00,
2013-10-26 03:20:00,52.3,47.9,30.13,North,11,0.0,0.0,85,0.00,,,0.00,Wunderground v.1.15,2013-10-26 07:20:00,
2013-10-26 03:25:00,52.1,47.7,30.13,North,11,0.0,0.0,85,0.00,,,0.00,Wunderground v.1.15,2013-10-26 07:25:00,
2013-10-26 03:30:00,51.7,47.3,30.13,North,11,0.0,0.0,85,0.00,,,0.00,Wunderground v.1.15,2013-10-26 07:30:00,
2013-10-26 03:35:00,51.5,47.1,30.13,North,11,0.0,0.0,85,0.00,,,0.00,Wunderground v.1.15,2013-10-26 07:35:00,
2013-10-26 03:40:00,51.4,47.0,30.13,North,11,0.0,0.0,85,0.00,,,0.00,Wunderground v.1.15,2013-10-26 07:40:00,
2013-10-26 03:45:00,51.4,47.0,30.13,North,11,0.0,0.0,85,0.00,,,0.00,Wunderground v.1.15,2013-10-26 07:45:00,
2013-10-26 03:50:00,51.4,47.0,30.13,North,11,0.0,0.0,85,0.00,,,0.00,Wunderground v.1.15,2013-10-26 07:50:00,
2013-10-26 03:55:00,51.1,46.7,30.13,North,11,0.0,0.0,85,0.00,,,0.00,Wunderground v.1.15,2013-10-26 07:55:00,
2013-10-26 04:05:00,50.4,46.1,30.13,North,11,0.0,0.0,85,0.00,,,0.00,Wunderground v.1.15,2013-10-26 08:05:00,
2013-10-26 04:15:00,49.9,45.6,30.13,North,11,0.0,0.0,85,0.00,,,0.00,Wunderground v.1.15,2013-10-26 08:15:00,
2013-10-26 04:20:00,49.8,45.5,30.12,North,11,0.0,0.0,85,0.00,,,0.00,Wunderground v.1.15,2013-10-26 08:20:00,
2013-10-26 04:25:00,49.7,45.4,30.12,North,11,0.0,0.0,85,0.00,,,0.00,Wunderground v.1.15,2013-10-26 08:25:00,
2013-10-26 04:30:00,49.8,45.5,30.12,North,11,0.0,0.0,85,0.00,,,0.00,Wunderground v.1.15,2013-10-26 08:30:00,
2013-10-26 04:35:00,49.9,45.6,30.12,North,11,0.0,0.0,85,0.00,,,0.00,Wunderground v.1.15,2013-10-26 08:35:00,
2013-10-26 04:40:00,49.9,45.6,30.12,North,11,0.0,0.0,85,0.00,,,0.00,Wunderground v.1.15,2013-10-26 08:40:00,
2013-10-26 04:45:00,49.8,45.5,30.12,North,11,0.0,0.0,85,0.00,,,0.00,Wunderground v.1.15,2013-10-26 08:45:00,
2013-10-26 04:50:00,49.7,45.4,30.12,North,11,0.0,0.0,85,0.00,,,0.00,Wunderground v.1.15,2013-10-26 08:50:00,
2013-10-26 04:55:00,50.0,45.7,30.11,North,11,0.0,0.0,85,0.00,,,0.00,Wunderground v.1.15,2013-10-26 08:55:00,
2013-10-26 05:05:00,50.8,46.5,30.11,North,11,0.0,0.0,85,0.00,,,0.00,Wunderground v.1.15,2013-10-26 09:05:00,
2013-10-26 05:10:00,51.0,46.6,30.11,North,11,0.0,0.0,85,0.00,,,0.00,Wunderground v.1.15,2013-10-26 09:10:00,
2013-10-26 05:15:00,51.4,47.0,30.11,North,11,0.0,0.0,85,0.00,,,0.00,Wunderground v.1.15,2013-10-26 09:15:00,
2013-10-26 05:20:00,51.5,47.1,30.12,North,11,0.0,0.0,85,0.00,,,0.00,Wunderground v.1.15,2013-10-26 09:20:00,
2013-10-26 05:25:00,51.7,47.3,30.12,North,11,0.0,0.0,85,0.00,,,0.00,Wunderground v.1.15,2013-10-26 09:25:00,
2013-10-26 05:30:00,52.0,47.6,30.12,North,11,0.0,0.0,85,0.00,,,0.00,Wunderground v.1.15,2013-10-26 09:30:00,
2013-10-26 05:35:00,52.4,48.0,30.12,North,11,0.0,0.0,85,0.00,,,0.00,Wunderground v.1.15,2013-10-26 09:35:00,
2013-10-26 05:40:00,52.8,48.4,30.12,North,11,0.0,0.0,85,0.00,,,0.00,Wunderground v.1.15,2013-10-26 09:40:00,
2013-10-26 05:45:00,53.0,48.6,30.12,North,11,0.0,0.0,85,0.00,,,0.00,Wunderground v.1.15,2013-10-26 09:45:00,
2013-10-26 05:50:00,53.1,48.7,30.12,North,11,0.0,0.0,85,0.00,,,0.00,Wunderground v.1.15,2013-10-26 09:50:00,
2013-10-26 05:55:00,53.0,48.6,30.13,North,11,0.0,0.0,85,0.00,,,0.00,Wunderground v.1.15,2013-10-26 09:55:00,
2013-10-26 06:00:00,52.9,48.5,30.12,North,11,0.0,0.0,85,0.00,,,0.00,Wunderground v.1.15,2013-10-26 10:00:00,
2013-10-26 06:05:00,52.7,48.3,30.13,North,11,0.0,0.0,85,0.00,,,0.00,Wunderground v.1.15,2013-10-26 10:05:00,
2013-10-26 06:10:00,52.6,48.2,30.13,North,11,0.0,0.0,85,0.00,,,0.00,Wunderground v.1.15,2013-10-26 10:10:00,
2013-10-26 06:15:00,52.4,48.0,30.13,North,11,0.0,0.0,85,0.00,,,0.00,Wunderground v.1.15,2013-10-26 10:15:00,
2013-10-26 06:20:00,52.0,47.6,30.14,North,11,0.0,0.0,85,0.00,,,0.00,Wunderground v.1.15,2013-10-26 10:20:00,
2013-10-26 06:25:00,51.7,47.3,30.14,North,11,0.0,0.0,85,0.00,,,0.00,Wunderground v.1.15,2013-10-26 10:25:00,
2013-10-26 06:30:00,51.4,47.0,30.14,North,11,0.0,0.0,85,0.00,,,0.00,Wunderground v.1.15,2013-10-26 10:30:00,
2013-10-26 06:35:00,51.3,46.9,30.14,North,11,0.0,0.0,85,0.00,,,0.00,Wunderground v.1.15,2013-10-26 10:35:00,
2013-10-26 06:40:00,51.2,46.8,30.14,North,11,0.0,0.0,85,0.00,,,0.00,Wunderground v.1.15,2013-10-26 10:40:00,
2013-10-26 06:45:00,51.0,46.6,30.14,North,11,0.0,0.0,85,0.00,,,0.00,Wunderground v.1.15,2013-10-26 10:45:00,
2013-10-26 06:50:00,50.9,46.6,30.14,North,11,0.0,0.0,85,0.00,,,0.00,Wunderground v.1.15,2013-10-26 10:50:00,
2013-10-26 06:55:00,50.7,46.4,30.14,North,11,0.0,0.0,85,0.00,,,0.00,Wunderground v.1.15,2013-10-26 10:55:00,
2013-10-26 07:05:00,50.6,46.3,30.15,North,11,0.0,0.0,85,0.00,,,0.00,Wunderground v.1.15,2013-10-26 11:05:00,
2013-10-26 07:10:00,50.8,46.5,30.15,North,11,0.0,0.0,85,0.00,,,0.00,Wunderground v.1.15,2013-10-26 11:10:00,
2013-10-26 07:15:00,50.7,46.4,30.15,North,11,0.0,0.0,85,0.00,,,0.00,Wunderground v.1.15,2013-10-26 11:15:00,
2013-10-26 07:20:00,50.6,46.3,30.15,North,11,0.0,0.0,85,0.00,,,0.00,Wunderground v.1.15,2013-10-26 11:20:00,
2013-10-26 07:25:00,50.8,46.5,30.15,North,11,0.0,0.0,85,0.00,,,0.00,Wunderground v.1.15,2013-10-26 11:25:00,
2013-10-26 07:30:00,50.9,46.6,30.15,North,11,0.0,0.0,85,0.00,,,0.00,Wunderground v.1.15,2013-10-26 11:30:00,
2013-10-26 07:35:00,50.9,46.6,30.16,WNW,296,0.0,0.0,85,0.00,,,0.00,Wunderground v.1.15,2013-10-26 11:35:00,
2013-10-26 07:40:00,50.8,46.5,30.16,WNW,296,0.0,0.0,85,0.00,,,0.00,Wunderground v.1.15,2013-10-26 11:40:00,
2013-10-26 07:45:00,50.8,46.5,30.16,NW,306,0.0,0.0,85,0.00,,,0.00,Wunderground v.1.15,2013-10-26 11:45:00,
2013-10-26 07:50:00,50.9,46.6,30.16,NW,307,0.0,0.0,85,0.00,,,0.00,Wunderground v.1.15,2013-10-26 11:50:00,
2013-10-26 07:55:00,50.8,46.5,30.16,WNW,287,0.0,0.0,85,0.00,,,0.00,Wunderground v.1.15,2013-10-26 11:55:00,
2013-10-26 08:00:00,51.0,46.6,30.16,WNW,287,0.0,0.0,85,0.00,,,0.00,Wunderground v.1.15,2013-10-26 12:00:00,
2013-10-26 08:05:00,51.3,46.9,30.17,WNW,287,0.0,0.0,85,0.00,,,0.00,Wunderground v.1.15,2013-10-26 12:05:00,
2013-10-26 08:10:00,51.9,47.5,30.16,West,277,0.0,0.0,85,0.00,,,0.00,Wunderground v.1.15,2013-10-26 12:10:00,
2013-10-26 08:15:00,53.0,48.6,30.16,West,277,0.0,0.0,85,0.00,,,0.00,Wunderground v.1.15,2013-10-26 12:15:00,
2013-10-26 08:20:00,53.6,49.2,30.16,West,274,0.0,0.0,85,0.00,,,0.00,Wunderground v.1.15,2013-10-26 12:20:00,
2013-10-26 08:25:00,54.4,49.7,30.16,WNW,286,0.0,0.0,84,0.00,,,0.00,Wunderground v.1.15,2013-10-26 12:25:00,
2013-10-26 08:30:00,55.1,50.4,30.16,WNW,290,0.0,0.0,84,0.00,,,0.00,Wunderground v.1.15,2013-10-26 12:30:00,
2013-10-26 08:35:00,55.9,51.1,30.16,WNW,291,0.0,0.0,84,0.00,,,0.01,Wunderground v.1.15,2013-10-26 12:35:00,
2013-10-26 08:40:00,56.1,51.3,30.17,West,272,0.0,0.0,84,0.00,,,0.01,Wunderground v.1.15,2013-10-26 12:40:00,
2013-10-26 08:45:00,56.5,51.7,30.17,WSW,254,0.0,0.0,84,0.00,,,0.01,Wunderground v.1.15,2013-10-26 12:45:00,
2013-10-26 08:50:00,57.8,53.0,30.17,WSW,254,0.0,0.0,84,0.00,,,0.01,Wunderground v.1.15,2013-10-26 12:50:00,
2013-10-26 08:55:00,58.7,53.9,30.17,WSW,254,0.0,0.0,84,0.00,,,0.01,Wunderground v.1.15,2013-10-26 12:55:00,
2013-10-26 09:00:00,58.7,53.9,30.17,WSW,254,0.0,0.0,84,0.00,,,0.01,Wunderground v.1.15,2013-10-26 13:00:00,
2013-10-26 09:05:00,59.0,54.2,30.18,West,261,0.0,0.0,84,0.00,,,0.01,Wunderground v.1.15,2013-10-26 13:05:00,
2013-10-26 09:10:00,59.3,54.5,30.18,West,265,0.0,0.0,84,0.00,,,0.01,Wunderground v.1.15,2013-10-26 13:10:00,
2013-10-26 09:15:00,60.2,55.3,30.19,West,265,0.0,0.0,84,0.00,,,0.01,Wunderground v.1.15,2013-10-26 13:15:00,
2013-10-26 09:25:00,62.1,57.2,30.18,West,280,0.0,0.0,84,0.00,,,0.01,Wunderground v.1.15,2013-10-26 13:25:00,
2013-10-26 09:30:00,62.7,57.8,30.18,West,280,0.0,4.0,84,0.00,,,0.01,Wunderground v.1.15,2013-10-26 13:30:00,
2013-10-26 09:35:00,62.6,57.7,30.18,NW,317,1.0,4.0,84,0.00,,,0.01,Wunderground v.1.15,2013-10-26 13:35:00,
2013-10-26 09:40:00,62.8,57.9,30.18,NW,318,2.0,2.0,84,0.00,,,0.01,Wunderground v.1.15,2013-10-26 13:40:00,
2013-10-26 09:45:00,63.5,58.2,30.18,North,355,2.0,6.0,83,0.00,,,0.01,Wunderground v.1.15,2013-10-26 13:45:00,
2013-10-26 09:50:00,63.9,58.3,30.18,North,360,4.0,4.0,82,0.00,,,0.01,Wunderground v.1.15,2013-10-26 13:50:00,
2013-10-26 09:55:00,64.9,59.3,30.18,NNE,16,5.0,5.0,82,0.00,,,0.01,Wunderground v.1.15,2013-10-26 13:55:00,
2013-10-26 10:00:00,65.6,59.3,30.18,NNE,13,5.0,5.0,80,0.00,,,0.01,Wunderground v.1.15,2013-10-26 14:00:00,
2013-10-26 10:05:00,65.7,59.0,30.18,NNE,12,4.0,5.0,79,0.00,,,0.01,Wunderground v.1.15,2013-10-26 14:05:00,
2013-10-26 10:10:00,65.6,58.6,30.18,North,10,5.0,5.0,78,0.00,,,0.01,Wunderground v.1.15,2013-10-26 14:10:00,
2013-10-26 10:15:00,66.7,59.6,30.18,NNE,12,5.0,5.0,78,0.00,,,0.01,Wunderground v.1.15,2013-10-26 14:15:00,
2013-10-26 10:20:00,67.7,59.9,30.18,North,360,5.0,5.0,76,0.00,,,0.01,Wunderground v.1.15,2013-10-26 14:20:00,
2013-10-26 10:25:00,68.0,59.4,30.18,North,9,5.0,6.0,74,0.00,,,0.01,Wunderground v.1.15,2013-10-26 14:25:00,
2013-10-26 10:30:00,67.9,59.7,30.18,North,360,5.0,5.0,75,0.00,,,0.01,Wunderground v.1.15,2013-10-26 14:30:00,
2013-10-26 10:35:00,68.5,59.9,30.18,North,9,5.0,5.0,74,0.00,,,0.01,Wunderground v.1.15,2013-10-26 14:35:00,
2013-10-26 10:40:00,68.7,59.3,30.18,NNE,12,5.0,7.0,72,0.00,,,0.01,Wunderground v.1.15,2013-10-26 14:40:00,
2013-10-26 10:50:00,69.7,59.9,30.18,North,5,6.0,6.0,71,0.00,,,0.01,Wunderground v.1.15,2013-10-26 14:50:00,
2013-10-26 10:55:00,70.3,60.1,30.18,North,11,5.0,6.0,70,0.00,,,0.01,Wunderground v.1.15,2013-10-26 14:55:00,
2013-10-26 11:00:00,70.7,59.6,30.18,NNE,22,5.0,5.0,68,0.00,,,0.01,Wunderground v.1.15,2013-10-26 15:00:00,
2013-10-26 11:05:00,71.1,60.0,30.18,NNE,27,5.0,5.0,68,0.00,,,0.01,Wunderground v.1.15,2013-10-26 15:05:00,
2013-10-26 11:10:00,71.6,60.5,30.18,NNE,22,5.0,6.0,68,0.00,,,0.01,Wunderground v.1.15,2013-10-26 15:10:00,
2013-10-26 11:15:00,71.9,60.3,30.18,NNE,23,5.0,6.0,67,0.00,,,0.01,Wunderground v.1.15,2013-10-26 15:15:00,
2013-10-26 11:20:00,72.0,59.6,30.18,NNE,14,4.0,5.0,65,0.00,,,0.01,Wunderground v.1.15,2013-10-26 15:20:00,
2013-10-26 11:25:00,72.1,59.7,30.18,North,360,5.0,5.0,65,0.00,,,0.01,Wunderground v.1.15,2013-10-26 15:25:00,
2013-10-26 11:30:00,72.2,59.8,30.18,NNE,20,6.0,9.0,65,0.00,,,0.01,Wunderground v.1.15,2013-10-26 15:30:00,
2013-10-26 11:35:00,72.4,60.8,30.18,NNE,19,4.0,9.0,67,0.00,,,0.01,Wunderground v.1.15,2013-10-26 15:35:00,
2013-10-26 11:40:00,73.0,60.5,30.17,NNE,18,3.0,7.0,65,0.00,,,0.01,Wunderground v.1.15,2013-10-26 15:40:00,
2013-10-26 11:45:00,73.1,60.2,30.17,NNE,15,4.0,7.0,64,0.00,,,0.01,Wunderground v.1.15,2013-10-26 15:45:00,
2013-10-26 11:50:00,73.3,60.4,30.17,NNE,17,4.0,4.0,64,0.00,,,0.01,Wunderground v.1.15,2013-10-26 15:50:00,
2013-10-26 12:00:00,73.7,60.3,30.17,NNE,18,2.0,6.0,63,0.00,,,0.01,Wunderground v.1.15,2013-10-26 16:00:00,
2013-10-26 12:05:00,74.3,60.9,30.17,NNE,18,2.0,6.0,63,0.00,,,0.01,Wunderground v.1.15,2013-10-26 16:05:00,
2013-10-26 12:10:00,74.5,61.1,30.17,NNE,15,2.0,2.0,63,0.00,,,0.01,Wunderground v.1.15,2013-10-26 16:10:00,
2013-10-26 12:15:00,75.0,61.5,30.16,NNE,14,2.0,2.0,63,0.00,,,0.01,Wunderground v.1.15,2013-10-26 16:15:00,
2013-10-26 12:20:00,75.1,60.7,30.16,NNE,13,1.0,3.0,61,0.00,,,0.01,Wunderground v.1.15,2013-10-26 16:20:00,
2013-10-26 12:25:00,75.0,60.6,30.16,NNE,13,1.0,3.0,61,0.00,,,0.01,Wunderground v.1.15,2013-10-26 16:25:00,
2013-10-26 12:35:00,76.0,62.0,30.16,NNE,13,0.0,1.0,62,0.00,,,0.01,Wunderground v.1.15,2013-10-26 16:35:00,
2013-10-26 12:40:00,76.9,61.0,30.16,NNE,13,0.0,0.0,58,0.00,,,0.01,Wunderground v.1.15,2013-10-26 16:40:00,
2013-10-26 12:45:00,77.0,59.6,30.16,NNE,13,0.0,0.0,55,0.00,,,0.01,Wunderground v.1.15,2013-10-26 16:45:00,
2013-10-26 12:50:00,77.7,59.7,30.15,NNE,13,0.0,0.0,54,0.00,,,0.01,Wunderground v.1.15,2013-10-26 16:50:00,
2013-10-26 12:55:00,77.9,57.2,30.15,NNE,13,0.0,2.0,49,0.00,,,0.01,Wunderground v.1.15,2013-10-26 16:55:00,
2013-10-26 13:00:00,77.5,57.9,30.15,NNE,13,1.0,1.0,51,0.00,,,0.01,Wunderground v.1.15,2013-10-26 17:00:00,
2013-10-26 13:05:00,78.0,58.9,30.14,NNE,13,1.0,1.0,52,0.00,,,0.01,Wunderground v.1.15,2013-10-26 17:05:00,
2013-10-26 13:10:00,78.1,57.9,30.14,NNE,13,0.0,0.0,50,0.00,,,0.01,Wunderground v.1.15,2013-10-26 17:10:00,
2013-10-26 13:20:00,78.7,58.5,30.13,NNE,13,0.0,2.0,50,0.00,,,0.01,Wunderground v.1.15,2013-10-26 17:20:00,
2013-10-26 13:25:00,78.4,56.5,30.13,NNE,13,0.0,2.0,47,0.00,,,0.01,Wunderground v.1.15,2013-10-26 17:25:00,
2013-10-26 13:30:00,78.3,58.1,30.13,NNE,12,0.0,0.0,50,0.00,,,0.01,Wunderground v.1.15,2013-10-26 17:30:00,
2013-10-26 13:35:00,78.8,58.0,30.12,North,11,0.0,0.0,49,0.00,,,0.01,Wunderground v.1.15,2013-10-26 17:35:00,
2013-10-26 13:40:00,79.3,57.9,30.12,North,11,0.0,0.0,48,0.00,,,0.01,Wunderground v.1.15,2013-10-26 17:40:00,
2013-10-26 13:45:00,79.4,58.6,30.11,North,360,0.0,0.0,49,0.00,,,0.01,Wunderground v.1.15,2013-10-26 17:45:00,
2013-10-26 13:50:00,79.9,58.5,30.11,North,355,1.0,3.0,48,0.00,,,0.01,Wunderground v.1.15,2013-10-26 17:50:00,
2013-10-26 13:55:00,79.0,57.0,30.11,North,360,2.0,3.0,47,0.00,,,0.01,Wunderground v.1.15,2013-10-26 17:55:00,
2013-10-26 14:00:00,79.0,58.2,30.11,North,360,2.0,2.0,49,0.00,,,0.01,Wunderground v.1.15,2013-10-26 18:00:00,
2013-10-26 14:05:00,79.2,57.8,30.10,North,360,1.0,2.0,48,0.00,,,0.01,Wunderground v.1.15,2013-10-26 18:05:00,
2013-10-26 14:15:00,78.6,56.1,30.10,North,360,2.0,3.0,46,0.00,,,0.01,Wunderground v.1.15,2013-10-26 18:15:00,
2013-10-26 14:20:00,78.7,55.0,30.10,North,360,2.0,2.0,44,0.00,,,0.01,Wunderground v.1.15,2013-10-26 18:20:00,
2013-10-26 14:25:00,78.3,56.4,30.10,North,360,2.0,2.0,47,0.00,,,0.01,Wunderground v.1.15,2013-10-26 18:25:00,
2013-10-26 14:35:00,78.2,55.7,30.10,North,350,3.0,4.0,46,0.00,,,0.01,Wunderground v.1.15,2013-10-26 18:35:00,
2013-10-26 14:40:00,78.7,55.6,30.09,North,355,2.0,2.0,45,0.00,,,0.01,Wunderground v.1.15,2013-10-26 18:40:00,
2013-10-26 14:45:00,79.3,56.7,30.09,North,355,1.0,2.0,46,0.00,,,0.01,Wunderground v.1.15,2013-10-26 18:45:00,
2013-10-26 14:50:00,80.0,57.4,30.09,NNW,348,1.0,2.0,46,0.00,,,0.01,Wunderground v.1.15,2013-10-26 18:50:00,
2013-10-26 14:55:00,80.1,58.0,30.09,NNW,348,1.0,2.0,47,0.00,,,0.01,Wunderground v.1.15,2013-10-26 18:55:00,
2013-10-26 15:00:00,80.5,57.8,30.09,North,350,1.0,2.0,46,0.00,,,0.01,Wunderground v.1.15,2013-10-26 19:00:00,
2013-10-26 15:05:00,80.2,57.5,30.09,North,360,3.0,3.0,46,0.00,,,0.01,Wunderground v.1.15,2013-10-26 19:05:00,
2013-10-26 15:10:00,80.1,56.2,30.09,North,360,3.0,3.0,44,0.00,,,0.01,Wunderground v.1.15,2013-10-26 19:10:00,
2013-10-26 15:15:00,79.8,56.6,30.08,North,360,1.0,3.0,45,0.00,,,0.01,Wunderground v.1.15,2013-10-26 19:15:00,
2013-10-26 15:20:00,80.3,56.4,30.08,North,5,0.0,0.0,44,0.00,,,0.01,Wunderground v.1.15,2013-10-26 19:20:00,
2013-10-26 15:25:00,80.3,54.5,30.08,North,5,1.0,5.0,41,0.00,,,0.01,Wunderground v.1.15,2013-10-26 19:25:00,
2013-10-26 15:30:00,79.7,53.9,30.08,North,360,2.0,4.0,41,0.00,,,0.01,Wunderground v.1.15,2013-10-26 19:30:00,
2013-10-26 15:35:00,79.3,53.6,30.08,North,360,2.0,4.0,41,0.00,,,0.01,Wunderground v.1.15,2013-10-26 19:35:00,
2013-10-26 15:40:00,79.5,56.3,30.08,North,5,1.0,1.0,45,0.00,,,0.01,Wunderground v.1.15,2013-10-26 19:40:00,
2013-10-26 15:45:00,79.6,54.5,30.08,North,5,1.0,1.0,42,0.00,,,0.01,Wunderground v.1.15,2013-10-26 19:45:00,
2013-10-26 15:50:00,79.9,56.0,30.08,North,360,1.0,1.0,44,0.00,,,0.01,Wunderground v.1.15,2013-10-26 19:50:00,
2013-10-26 16:00:00,80.7,55.5,30.08,North,360,0.0,7.0,42,0.00,,,0.01,Wunderground v.1.15,2013-10-26 20:00:00,
2013-10-26 16:05:00,79.8,54.7,30.07,North,360,2.0,7.0,42,0.00,,,0.01,Wunderground v.1.15,2013-10-26 20:05:00,
2013-10-26 16:15:00,80.3,56.4,30.07,North,360,1.0,3.0,44,0.00,,,0.01,Wunderground v.1.15,2013-10-26 20:15:00,
2013-10-26 16:20:00,80.1,56.8,30.07,North,5,1.0,1.0,45,0.00,,,0.01,Wunderground v.1.15,2013-10-26 20:20:00,
2013-10-26 16:25:00,79.9,56.0,30.07,North,360,2.0,2.0,44,0.00,,,0.01,Wunderground v.1.15,2013-10-26 20:25:00,
2013-10-26 16:35:00,79.6,57.6,30.07,North,360,2.0,2.0,47,0.00,,,0.01,Wunderground v.1.15,2013-10-26 20:35:00,
2013-10-26 16:40:00,79.8,57.2,30.07,North,360,1.0,5.0,46,0.00,,,0.01,Wunderground v.1.15,2013-10-26 20:40:00,
2013-10-26 16:45:00,79.3,56.7,30.07,North,360,2.0,5.0,46,0.00,,,0.01,Wunderground v.1.15,2013-10-26 20:45:00,
2013-10-26 16:50:00,78.9,56.4,30.07,North,360,2.0,4.0,46,0.00,,,0.01,Wunderground v.1.15,2013-10-26 20:50:00,
2013-10-26 16:55:00,79.1,57.1,30.07,North,360,1.0,4.0,47,0.00,,,0.01,Wunderground v.1.15,2013-10-26 20:55:00,
2013-10-26 17:15:00,78.0,54.9,30.07,North,360,1.0,3.0,45,0.00,,,0.01,Wunderground v.1.15,2013-10-26 21:15:00,
2013-10-26 17:20:00,78.0,54.3,30.07,North,360,1.0,1.0,44,0.00,,,0.01,Wunderground v.1.15,2013-10-26 21:20:00,
2013-10-26 17:30:00,77.4,53.8,30.07,North,360,2.0,2.0,44,0.00,,,0.01,Wunderground v.1.15,2013-10-26 21:30:00,
2013-10-26 17:35:00,77.1,54.1,30.07,North,360,2.0,5.0,45,0.00,,,0.01,Wunderground v.1.15,2013-10-26 21:35:00,
2013-10-26 17:40:00,76.9,54.5,30.07,North,360,2.0,2.0,46,0.00,,,0.01,Wunderground v.1.15,2013-10-26 21:40:00,
2013-10-26 17:45:00,76.8,55.0,30.07,North,360,1.0,2.0,47,0.00,,,0.01,Wunderground v.1.15,2013-10-26 21:45:00,
2013-10-26 17:55:00,76.5,54.2,30.07,North,360,0.0,0.0,46,0.00,,,0.01,Wunderground v.1.15,2013-10-26 21:55:00,
2013-10-26 18:00:00,76.2,53.9,30.07,North,360,0.0,0.0,46,0.00,,,0.01,Wunderground v.1.15,2013-10-26 22:00:00,
2013-10-26 18:05:00,76.0,54.9,30.06,North,360,0.0,0.0,48,0.00,,,0.01,Wunderground v.1.15,2013-10-26 22:05:00,
2013-10-26 18:10:00,75.7,55.2,30.07,North,360,0.0,0.0,49,0.00,,,0.01,Wunderground v.1.15,2013-10-26 22:10:00,
2013-10-26 18:15:00,75.4,56.0,30.07,North,360,0.0,0.0,51,0.00,,,0.01,Wunderground v.1.15,2013-10-26 22:15:00,
2013-10-26 18:20:00,74.6,55.8,30.07,North,360,0.0,0.0,52,0.00,,,0.01,Wunderground v.1.15,2013-10-26 22:20:00,
2013-10-26 18:25:00,73.4,55.2,30.07,North,360,0.0,0.0,53,0.00,,,0.01,Wunderground v.1.15,2013-10-26 22:25:00,
2013-10-26 18:30:00,72.3,54.7,30.07,North,360,0.0,0.0,54,0.00,,,0.01,Wunderground v.1.15,2013-10-26 22:30:00,
2013-10-26 18:40:00,70.5,54.0,30.07,North,360,0.0,0.0,56,0.00,,,0.01,Wunderground v.1.15,2013-10-26 22:40:00,
2013-10-26 18:45:00,69.6,54.6,30.07,North,360,0.0,0.0,59,0.00,,,0.01,Wunderground v.1.15,2013-10-26 22:45:00,
2013-10-26 21:25:00,54.3,49.2,30.11,North,360,0.0,0.0,83,0.00,,,0.01,Wunderground v.1.15,2013-10-27 01:25:00,
2013-10-26 21:30:00,54.7,49.6,30.11,North,360,0.0,0.0,83,0.00,,,0.01,Wunderground v.1.15,2013-10-27 01:30:00,
2013-10-26 21:35:00,55.1,50.0,30.11,North,360,0.0,0.0,83,0.00,,,0.01,Wunderground v.1.15,2013-10-27 01:35:00,
2013-10-26 21:40:00,55.1,50.0,30.11,North,360,0.0,0.0,83,0.00,,,0.01,Wunderground v.1.15,2013-10-27 01:40:00,
2013-10-26 21:45:00,55.0,49.9,30.11,North,360,0.0,0.0,83,0.00,,,0.01,Wunderground v.1.15,2013-10-27 01:45:00,
2013-10-26 21:50:00,54.7,49.6,30.11,North,360,0.0,0.0,83,0.00,,,0.01,Wunderground v.1.15,2013-10-27 01:50:00,
2013-10-26 21:55:00,54.5,49.4,30.11,North,360,0.0,0.0,83,0.00,,,0.01,Wunderground v.1.15,2013-10-27 01:55:00,
2013-10-26 22:00:00,54.4,49.3,30.11,North,360,0.0,0.0,83,0.00,,,0.01,Wunderground v.1.15,2013-10-27 02:00:00,
2013-10-26 22:05:00,54.2,49.1,30.11,North,360,0.0,0.0,83,0.00,,,0.01,Wunderground v.1.15,2013-10-27 02:05:00,
2013-10-26 22:15:00,53.6,48.6,30.11,North,360,0.0,0.0,83,0.00,,,0.01,Wunderground v.1.15,2013-10-27 02:15:00,
2013-10-26 22:20:00,53.5,48.5,30.12,North,360,0.0,0.0,83,0.00,,,0.01,Wunderground v.1.15,2013-10-27 02:20:00,
2013-10-26 22:25:00,53.2,48.2,30.12,North,360,0.0,0.0,83,0.00,,,0.01,Wunderground v.1.15,2013-10-27 02:25:00,
2013-10-26 22:30:00,52.9,47.9,30.12,North,360,0.0,0.0,83,0.00,,,0.01,Wunderground v.1.15,2013-10-27 02:30:00,
2013-10-26 22:35:00,52.7,47.7,30.12,North,360,0.0,0.0,83,0.00,,,0.01,Wunderground v.1.15,2013-10-27 02:35:00,
2013-10-26 22:45:00,52.1,47.4,30.11,North,360,0.0,0.0,84,0.00,,,0.01,Wunderground v.1.15,2013-10-27 02:45:00,
2013-10-26 22:50:00,51.9,47.2,30.11,North,360,0.0,0.0,84,0.00,,,0.01,Wunderground v.1.15,2013-10-27 02:50:00,
2013-10-26 22:55:00,51.9,47.2,30.11,North,360,0.0,0.0,84,0.00,,,0.01,Wunderground v.1.15,2013-10-27 02:55:00,
2013-10-26 23:00:00,52.0,47.3,30.11,North,360,0.0,0.0,84,0.00,,,0.01,Wunderground v.1.15,2013-10-27 03:00:00,
2013-10-26 23:05:00,52.0,47.3,30.11,North,360,0.0,0.0,84,0.00,,,0.01,Wunderground v.1.15,2013-10-27 03:05:00,
2013-10-26 23:10:00,52.1,47.4,30.11,North,360,0.0,0.0,84,0.00,,,0.01,Wunderground v.1.15,2013-10-27 03:10:00,
2013-10-26 23:15:00,52.0,47.3,30.11,North,360,0.0,0.0,84,0.00,,,0.01,Wunderground v.1.15,2013-10-27 03:15:00,
2013-10-26 23:20:00,51.9,47.2,30.10,North,360,0.0,0.0,84,0.00,,,0.01,Wunderground v.1.15,2013-10-27 03:20:00,
2013-10-26 23:25:00,51.9,47.2,30.10,North,360,0.0,0.0,84,0.00,,,0.01,Wunderground v.1.15,2013-10-27 03:25:00,
2013-10-26 23:30:00,51.7,47.0,30.10,North,360,0.0,0.0,84,0.00,,,0.01,Wunderground v.1.15,2013-10-27 03:30:00,
2013-10-26 23:35:00,51.6,46.9,30.10,North,360,0.0,0.0,84,0.00,,,0.01,Wunderground v.1.15,2013-10-27 03:35:00,
2013-10-26 23:40:00,51.6,46.9,30.10,North,360,0.0,0.0,84,0.00,,,0.01,Wunderground v.1.15,2013-10-27 03:40:00,
2013-10-26 23:45:00,51.6,46.9,30.10,North,360,0.0,0.0,84,0.00,,,0.01,Wunderground v.1.15,2013-10-27 03:45:00,
2013-10-26 23:50:00,51.7,47.0,30.10,North,360,0.0,0.0,84,0.00,,,0.01,Wunderground v.1.15,2013-10-27 03:50:00,
2013-10-26 23:55:00,51.8,47.1,30.10,North,360,0.0,0.0,84,0.00,,,0.01,Wunderground v.1.15,2013-10-27 03:55:00,